Content
SEND FEEDBACK

Daily
Averages
Monthly
Summary
Canada

VANCOUVER - UNIVERSITY, BRITISH COLUMBIA


Home > North America > Canada > British Columbia
Elevation: 249 feet     Latitude: 49 15N     Longitude: 123 15W

WEATHER
 
SELECT A DAY
Number of Records: 199,644;   Date Range: 1/1/95 - 12/19/14
 
SHARE

PRINT THIS DATA

[ ← Previous Day ]
WEATHER ALMANAC - MAY 25, 2013
[ Next Day → ]
[ °C ]   °F
Weather ElementAverageHighLow
Temperature54.8 °F62.6 °F (2:00 pm)46.4 °F (5:00 am)
Dewpoint39 °F48.2 °F (9:00 am) (7:00 pm)
Humidity68 %82 % (2:00 am)41 % (5:00 pm)
Barometer26.15 in30.04 in (9:00 am) (7:00 pm)
Wind Speed8.7 mph12.7 mph (11:00 am)
Wind Gust18.4 mph (5:00 pm)
Weather ElementAverage
Visibility19.7 mi
Wind DirectionSE (134.5 °)

Weather ElementTotal
Precipitation---
Heating Degree Days10.5 (Base 65)
Growing Degree Days4.5 (Base 50)
Averaged from 31 records on May 25, 2013
WEATHER CONDITIONS BREAKOUT
WIND DIRECTION BREAKOUT
WEATHER BY HOUR - MAY 25, 2013
[ °C ]   °F
Local TimeTemperatureDewpointHumidityBarometerVisibilityWind DirectionWind SpeedGust SpeedPrecipitationEventsConditions
1:00 AM50.0 °F42.8 °F76 %30.02 in30.0 miENE (70°)6.9 mphPartly Cloudy
2:00 AM50.0 °F44.6 °F82 %30.02 in30.0 miEast (100°)9.2 mphMostly Cloudy
3:00 AM50.0 °F44.6 °F82 %30.01 in30.0 miEast (90°)6.9 mphMostly Cloudy
4:00 AM48.2 °F42.8 °F82 %30.01 in30.0 miEast (90°)10.4 mphPartly Cloudy
5:00 AM47.0 °F42.0 °F76 %30.01 in28.0 miESE (110°)8.1 mphScattered Clouds
5:00 AM46.4 °F41.0 °F81 %30.01 in30.0 miESE (110°)8.1 mphPartly Cloudy
6:00 AM50.0 °F44.6 °F82 %30.01 in30.0 miEast (80°)6.9 mphMostly Cloudy
7:00 AM51.8 °F44.6 °F76 %30.02 in20.0 miEast (90°)8.1 mphOvercast
8:00 AM51.8 °F46.4 °F82 %30.03 in20.0 miEast (100°)11.5 mphMostly Cloudy
8:19 AM51.8 °F0.0 °F15.0 miEast (100°)11.5 mphLight Drizzle
8:31 AM51.8 °F0.0 °F15.0 miESE (110°)10.4 mphMostly Cloudy
8:44 AM53.6 °F0.0 °F15.0 miESE (120°)11.5 mphRainLight Rain Showers
9:00 AM53.6 °F48.2 °F82 %30.04 in15.0 miESE (110°)11.5 mphRainLight Rain Showers
9:20 AM51.8 °F0.0 °F15.0 miSE (130°)10.4 mphOvercast
10:00 AM53.6 °F46.4 °F77 %30.04 in15.0 miSE (140°)9.2 mphOvercast
11:00 AM55.4 °F46.4 °F72 %30.04 in15.0 miSSE (150°)12.7 mphMostly Cloudy
11:00 AM55.0 °F46.0 °F64 %30.04 in15.0 miSSE (150°)11.5 mphPartly Cloudy
12:00 PM59.0 °F46.4 °F63 %30.04 in15.0 miSSE (160°)8.1 mphMostly Cloudy
1:00 PM59.0 °F44.6 °F59 %30.04 in15.0 miSSE (160°)5.8 mphMostly Cloudy
2:00 PM62.6 °F46.4 °F55 %30.03 in15.0 miSE (130°)11.5 mphMostly Cloudy
3:00 PM60.8 °F46.4 °F59 %30.03 in15.0 miNNW (330°)10.4 mphMostly Cloudy
4:00 PM60.8 °F44.6 °F55 %30.02 in15.0 miWest (260°)3.5 mphScattered Clouds
5:00 PM62.6 °F44.6 °F52 %30.02 in20.0 miSW (230°)12.7 mph18.4 mphScattered Clouds
5:00 PM62.0 °F44.0 °F41 %30.02 in19.0 miSW (230°)12.7 mphScattered Clouds
6:00 PM62.6 °F44.6 °F52 %30.01 in20.0 miWSW (240°)8.1 mph17.3 mphScattered Clouds
7:00 PM59.0 °F44.6 °F59 %30.01 in20.0 miWSW (240°)5.8 mph17.3 mphScattered Clouds
8:00 PM59.0 °F44.6 °F59 %30.01 in20.0 miSSW (210°)5.8 mphScattered Clouds
9:00 PM55.4 °F42.8 °F63 %30.00 in20.0 miCalmScattered Clouds
10:00 PM55.4 °F42.8 °F63 %30.01 in20.0 miNE (40°)5.8 mphScattered Clouds
11:00 PM54.0 °F46.0 °F65 %30.01 in15.0 miNE (50°)6.9 mphScattered Clouds
11:00 PM53.6 °F46.4 °F77 %30.01 in15.0 miNE (40°)6.9 mphScattered Clouds
Hourly data recorded from CYVR, located miles away from Vancouver - University, British Columbia







STORIES FROM OUR PARTNERS